M I D A S
Marine Information and Data Acquisition System
Tripno 2207 of the Zeeleeuw from 2011-10-27 06:42:40 to 2011-10-27 15:51:38
Back to CruiseResearch ActivitiesStationsMapUnderway DataData graphs

EquipmentUnitsComments
TimeDGPSUTC
LatitudeDGPSDM.mWGS84
LongitudeDGPSDM.mWGS84
SpeedMeteo Stationm/sRelative wind speed
DirectionMeteo StationdegRelative wind direction
TemperatureMeteo Stationdeg CelciusAir temperature
PressureMeteo StationPaAtmospheric pressure
HumidityMeteo Station%Relative humidity
Missing or incorrect values are displayed as -999
Metereological data collected by the RV Zeeleeuw from 2011-10-27 06:36:40 to 2011-10-27 16:01:03
Time Latitude Longitude Speed Direction Temperature Pressure Humidity
2011-10-27 06:37 51°13.636 2°56.019 4.3 304 10.6 100880 45
2011-10-27 06:38 51°13.637 2°56.008 4.2 347 10.6 100880 46
2011-10-27 06:39 51°13.654 2°55.943 2.7 350 10.6 100880 45
2011-10-27 06:40 51°13.673 2°55.859 1.6 338 10.6 100880 46
2011-10-27 06:41 51°13.692 2°55.768 3.2 335 10.6 100880 45
2011-10-27 06:42 51°13.705 2°55.746 3.3 8 10.6 100880 46
2011-10-27 06:43 51°13.714 2°55.752 3.1 33 10.6 100880 45
2011-10-27 06:44 51°13.743 2°55.722 1.7 53 10.6 100880 46
2011-10-27 06:45 51°13.808 2°55.656 2.2 30 10.7 100870 45
2011-10-27 06:46 51°13.899 2°55.59 2.4 23 10.6 100880 45
2011-10-27 06:47 51°14.009 2°55.514 1.6 9 10.6 100870 45
2011-10-27 06:48 51°14.136 2°55.418 4 15 10.5 100870 46
2011-10-27 06:49 51°14.262 2°55.306 2 28 10.5 100870 46
2011-10-27 06:50 51°14.409 2°55.165 2.4 9 10.5 100870 46
2011-10-27 06:51 51°14.557 2°54.996 1.6 356 10.5 100870 45
2011-10-27 06:52 51°14.701 2°54.807 3.8 19 10.4 100870 46
2011-10-27 06:53 51°14.852 2°54.622 2.3 14 10.4 100870 46
2011-10-27 06:54 51°15.01 2°54.423 3.1 18 10.4 100870 46
2011-10-27 06:55 51°15.178 2°54.241 3.3 22 10.4 100880 46
2011-10-27 06:56 51°15.346 2°54.058 3.5 18 10.4 100880 46
2011-10-27 06:57 51°15.508 2°53.859 3.2 23 10.4 100880 46
2011-10-27 06:58 51°15.664 2°53.647 3.1 27 10.4 100890 47
2011-10-27 06:59 51°15.827 2°53.448 2.6 19 10.4 100890 48
2011-10-27 07:00 51°15.998 2°53.278 4.2 15 10.3 100890 47
2011-10-27 07:01 51°16.168 2°53.103 4 20 10.3 100880 47
2011-10-27 07:02 51°16.346 2°52.964 5.3 19 10.3 100880 47
2011-10-27 07:03 51°16.526 2°52.829 5 23 10.3 100870 49
2011-10-27 07:04 51°16.701 2°52.687 4.6 22 10.3 100870 48
2011-10-27 07:05 51°16.874 2°52.556 5.3 22 10.4 100880 49
2011-10-27 07:06 51°17.054 2°52.466 5.9 19 10.4 100880 49
2011-10-27 07:07 51°17.235 2°52.383 6.2 22 10.5 100870 50
2011-10-27 07:08 51°17.415 2°52.305 6.9 13 10.4 100860 49
2011-10-27 07:09 51°17.598 2°52.309 7.9 14 10.4 100860 50
2011-10-27 07:10 51°17.78 2°52.326 7.9 10 10.3 100860 50
2011-10-27 07:11 51°17.96 2°52.365 6.9 10 10.3 100860 50
2011-10-27 07:12 51°18.128 2°52.462 8.8 4 10.3 100850 49
2011-10-27 07:13 51°18.243 2°52.673 6.8 355 10.4 100830 50
2011-10-27 07:14 51°18.308 2°52.94 9.8 350 10.3 100830 50
2011-10-27 07:15 51°18.362 2°53.216 12.4 350 10.3 100820 49
2011-10-27 07:16 51°18.425 2°53.485 6.5 355 10.3 100830 49
2011-10-27 07:17 51°18.495 2°53.75 13.7 354 10.3 100830 49
2011-10-27 07:18 51°18.573 2°54.009 6.4 355 10.4 100820 48
2011-10-27 07:19 51°18.658 2°54.262 12.4 356 10.4 100840 49
2011-10-27 07:20 51°18.737 2°54.521 16 350 10.5 100840 50
2011-10-27 07:21 51°18.802 2°54.79 13.4 353 10.4 100840 49
2011-10-27 07:22 51°18.871 2°55.056 13.6 356 10.4 100840 49
2011-10-27 07:23 51°18.949 2°55.314 13.3 356 10.4 100850 49
2011-10-27 07:24 51°19.023 2°55.575 17.3 351 10.4 100850 49
2011-10-27 07:25 51°19.093 2°55.839 14.2 355 10.3 100840 49
2011-10-27 07:26 51°19.172 2°56.095 10.2 351 10.4 100840 49
2011-10-27 07:27 51°19.247 2°56.355 12.4 352 10.3 100840 49
2011-10-27 07:28 51°19.318 2°56.615 14.9 352 10.2 100850 49
2011-10-27 07:29 51°19.39 2°56.873 12.6 356 10.2 100850 49
2011-10-27 07:30 51°19.47 2°57.123 11.5 354 10.1 100850 49
2011-10-27 07:31 51°19.548 2°57.377 6 352 10.1 100850 49
2011-10-27 07:32 51°19.618 2°57.636 14 352 10 100850 49
2011-10-27 07:33 51°19.692 2°57.892 11.8 353 10 100860 49
2011-10-27 07:34 51°19.762 2°58.15 11.5 352 10 100870 50
2011-10-27 07:35 51°19.826 2°58.408 12.7 355 10 100870 51
2011-10-27 07:36 51°19.902 2°58.657 15.6 354 9.9 100860 50
2011-10-27 07:37 51°19.965 2°58.913 15.5 354 9.9 100850 49
2011-10-27 07:38 51°20.034 2°59.165 10.2 354 10 100860 50
2011-10-27 07:39 51°20.108 2°59.409 10.8 351 10 100860 49
2011-10-27 07:40 51°20.17 2°59.66 13 352 10 100860 49
2011-10-27 07:41 51°20.233 2°59.91 6.6 355 10 100850 49
2011-10-27 07:42 51°20.303 3°0.156 6.7 349 10.1 100850 49
2011-10-27 07:43 51°20.357 3°0.413 12.7 353 10.1 100860 49
2011-10-27 07:44 51°20.417 3°0.666 5.7 354 10.1 100860 49
2011-10-27 07:45 51°20.482 3°0.914 11.8 352 10 100850 49
2011-10-27 07:46 51°20.547 3°1.164 13.3 350 10.1 100860 49
2011-10-27 07:47 51°20.61 3°1.418 16.6 351 10 100860 49
2011-10-27 07:48 51°20.678 3°1.671 12.4 352 10.1 100860 48
2011-10-27 07:49 51°20.735 3°1.93 12.8 351 10.1 100860 48
2011-10-27 07:50 51°20.799 3°2.186 12.2 352 10.2 100860 48
2011-10-27 07:51 51°20.869 3°2.442 13.4 350 10.3 100870 49
2011-10-27 07:52 51°20.935 3°2.702 6.2 350 10.2 100860 48
2011-10-27 07:53 51°21.007 3°2.957 14.7 350 10.2 100870 48
2011-10-27 07:54 51°21.064 3°3.222 14 349 10.2 100860 49
2011-10-27 07:55 51°21.122 3°3.486 6.2 352 10.2 100870 48
2011-10-27 07:56 51°21.193 3°3.741 6.2 351 10.1 100870 48
2011-10-27 07:57 51°21.261 3°3.996 13.2 352 10.1 100870 49
2011-10-27 07:58 51°21.321 3°4.255 12 351 10.1 100870 48
2011-10-27 07:59 51°21.391 3°4.505 11.6 352 10.2 100880 48
2011-10-27 08:00 51°21.454 3°4.76 12.7 352 10.2 100880 47
2011-10-27 08:01 51°21.516 3°5.017 14.4 352 10.3 100880 47
2011-10-27 08:02 51°21.583 3°5.269 13.4 352 10.4 100880 47
2011-10-27 08:03 51°21.643 3°5.523 6.1 352 10.4 100870 48
2011-10-27 08:04 51°21.71 3°5.774 13.4 348 10.3 100870 48
2011-10-27 08:05 51°21.778 3°6.022 12.4 350 10.2 100880 48
2011-10-27 08:06 51°21.837 3°6.279 10.7 350 10.2 100890 48
2011-10-27 08:07 51°21.902 3°6.534 12.1 350 10.1 100900 48
2011-10-27 08:08 51°21.97 3°6.791 11.7 351 10 100900 49
2011-10-27 08:09 51°22.025 3°7.057 15.2 348 9.9 100900 48
2011-10-27 08:10 51°22.071 3°7.33 11.9 349 9.9 100900 49
2011-10-27 08:11 51°22.122 3°7.602 9.2 347 9.9 100900 48
2011-10-27 08:12 51°22.179 3°7.874 5.8 348 9.9 100900 49
2011-10-27 08:13 51°22.227 3°8.154 15.7 349 9.8 100900 48
2011-10-27 08:14 51°22.28 3°8.434 10.8 346 10 100910 49
2011-10-27 08:15 51°22.343 3°8.71 10.5 346 9.9 100910 48
2011-10-27 08:16 51°22.348 3°8.994 11.2 345 9.9 100920 48
2011-10-27 08:17 51°22.334 3°9.291 13.2 344 9.8 100930 48
2011-10-27 08:18 51°22.331 3°9.593 6.5 347 9.8 100920 48
2011-10-27 08:19 51°22.335 3°9.899 10.1 347 9.8 100920 48
2011-10-27 08:20 51°22.365 3°10.199 11.4 347 9.9 100920 48
2011-10-27 08:21 51°22.391 3°10.475 8.4 351 9.9 100920 48
2011-10-27 08:22 51°22.41 3°10.652 8.2 353 9.8 100930 49
2011-10-27 08:23 51°22.431 3°10.807 7.9 356 9.8 100930 49
2011-10-27 08:24 51°22.449 3°10.958 9.4 353 9.9 100950 48
2011-10-27 08:25 51°22.462 3°11.108 9.7 352 10 100940 48
2011-10-27 08:26 51°22.475 3°11.266 7.4 349 10 100940 47
2011-10-27 08:27 51°22.489 3°11.448 9.8 351 10 100940 48
2011-10-27 08:28 51°22.511 3°11.635 10 352 10 100940 48
2011-10-27 08:29 51°22.532 3°11.823 9.2 346 10 100940 48
2011-10-27 08:30 51°22.488 3°11.93 6.5 321 10 100940 47
2011-10-27 08:31 51°22.469 3°11.917 6 246 10.1 100950 48
2011-10-27 08:32 51°22.46 3°11.886 6.6 253 10.1 100960 49
2011-10-27 08:33 51°22.453 3°11.854 5.4 251 10.2 100960 49
2011-10-27 08:34 51°22.448 3°11.825 5.4 254 10.2 100960 49
2011-10-27 08:35 51°22.444 3°11.797 5.6 250 10.2 100970 48
2011-10-27 08:36 51°22.441 3°11.772 6.1 255 10.2 100960 49
2011-10-27 08:37 51°22.439 3°11.746 6.3 254 10.2 100970 48
2011-10-27 08:38 51°22.437 3°11.721 7.2 248 10.2 100970 49
2011-10-27 08:39 51°22.437 3°11.697 4.9 251 10.2 100970 49
2011-10-27 08:40 51°22.436 3°11.672 5.7 252 10.3 100960 48
2011-10-27 08:41 51°22.436 3°11.648 5.8 257 10.3 100970 49
2011-10-27 08:42 51°22.436 3°11.624 5.9 253 10.3 100970 48
2011-10-27 08:43 51°22.436 3°11.6 4.9 253 10.3 100970 47
2011-10-27 08:44 51°22.438 3°11.579 5 251 10.3 100970 48
2011-10-27 08:45 51°22.44 3°11.558 5.6 259 10.4 100970 48
2011-10-27 08:46 51°22.444 3°11.541 5.7 302 10.4 100970 48
2011-10-27 08:47 51°22.449 3°11.53 4.2 311 10.4 100970 46
2011-10-27 08:48 51°22.453 3°11.523 5.7 30 10.4 100970 47
2011-10-27 08:49 51°22.455 3°11.519 6.7 52 10.5 100970 47
2011-10-27 08:50 51°22.455 3°11.515 5.7 33 10.4 100960 47
2011-10-27 08:51 51°22.454 3°11.508 5.5 31 10.4 100960 46
2011-10-27 08:52 51°22.485 3°11.425 -999 36 10.5 100950 46
2011-10-27 08:53 51°22.575 3°11.274 -999 35 10.8 100950 47
2011-10-27 08:54 51°22.687 3°11.118 1.8 41 10.8 100950 45
2011-10-27 08:55 51°22.798 3°10.951 2.1 40 10.8 100960 46
2011-10-27 08:56 51°22.916 3°10.797 1.6 37 10.8 100950 46
2011-10-27 08:57 51°23.03 3°10.641 -999 37 10.8 100950 46
2011-10-27 08:58 51°23.139 3°10.477 1.8 54 10.8 100950 46
2011-10-27 08:59 51°23.247 3°10.324 1.3 34 10.7 100940 46
2011-10-27 09:00 51°23.318 3°10.224 3.8 38 10.7 100950 46
2011-10-27 09:01 51°23.364 3°10.166 4.8 36 10.6 100950 45
2011-10-27 09:02 51°23.41 3°10.138 5.7 22 10.6 100950 46
2011-10-27 09:03 51°23.518 3°10.178 6 9 10.6 100940 46
2011-10-27 09:04 51°23.573 3°10.236 7 11 10.6 100940 48
2011-10-27 09:05 51°23.604 3°10.279 7.1 8 10.6 100930 47
2011-10-27 09:06 51°23.639 3°10.342 6.5 5 10.5 100930 47
2011-10-27 09:07 51°23.678 3°10.415 6.3 7 10.7 100930 48
2011-10-27 09:08 51°23.72 3°10.487 6.3 5 10.6 100930 46
2011-10-27 09:09 51°23.752 3°10.568 8.3 359 10.7 100930 48
2011-10-27 09:10 51°23.771 3°10.66 7.8 356 10.6 100930 47
2011-10-27 09:11 51°23.792 3°10.751 7.9 358 10.6 100940 48
2011-10-27 09:12 51°23.811 3°10.844 7.6 357 10.7 100940 47
2011-10-27 09:13 51°23.822 3°10.942 8 357 10.7 100940 47
2011-10-27 09:14 51°23.835 3°11.042 8.2 357 10.6 100930 47
2011-10-27 09:15 51°23.853 3°11.139 8.4 357 10.6 100940 47
2011-10-27 09:16 51°23.878 3°11.233 7.7 358 10.6 100940 47
2011-10-27 09:17 51°23.903 3°11.328 8.9 356 10.7 100940 47
2011-10-27 09:18 51°23.928 3°11.423 9 358 10.6 100930 46
2011-10-27 09:19 51°23.951 3°11.52 7.9 358 10.7 100930 47
2011-10-27 09:20 51°23.973 3°11.618 10.4 356 10.7 100930 47
2011-10-27 09:21 51°23.984 3°11.721 8.2 348 10.6 100940 47
2011-10-27 09:22 51°23.98 3°11.817 9.4 344 10.6 100940 46
2011-10-27 09:23 51°23.974 3°11.907 8.3 352 10.7 100940 46
2011-10-27 09:24 51°23.98 3°11.996 9 354 10.7 100940 47
2011-10-27 09:25 51°23.99 3°12.085 9.7 354 10.7 100940 47
2011-10-27 09:26 51°24 3°12.174 9.8 351 10.7 100940 47
2011-10-27 09:27 51°24.013 3°12.261 7.2 353 10.7 100930 47
2011-10-27 09:28 51°24.026 3°12.349 9.7 349 10.6 100920 47
2011-10-27 09:29 51°24.023 3°12.439 7.6 346 10.7 100930 47
2011-10-27 09:30 51°24.011 3°12.525 8.8 338 10.7 100930 46
2011-10-27 09:31 51°23.988 3°12.608 7.5 332 10.7 100940 47
2011-10-27 09:32 51°23.953 3°12.693 8.1 332 10.8 100940 46
2011-10-27 09:33 51°23.908 3°12.757 7 304 10.8 100930 47
2011-10-27 09:34 51°23.86 3°12.789 9.5 310 10.8 100930 47
2011-10-27 09:35 51°23.824 3°12.796 7.1 29 10.8 100930 47
2011-10-27 09:36 51°23.797 3°12.792 6.9 304 10.8 100920 47
2011-10-27 09:37 51°23.778 3°12.784 8.7 303 10.9 100930 47
2011-10-27 09:38 51°23.764 3°12.774 7 240 10.9 100930 48
2011-10-27 09:39 51°23.748 3°12.765 7.4 310 10.9 100940 48
2011-10-27 09:40 51°23.703 3°12.731 6.5 308 10.9 100940 47
2011-10-27 09:41 51°23.714 3°12.628 3.9 43 10.9 100950 46
2011-10-27 09:42 51°23.79 3°12.652 6.2 1 10.9 100960 46
2011-10-27 09:43 51°23.928 3°12.775 7.8 1 10.9 100930 47
2011-10-27 09:44 51°24.027 3°12.9 6.3 3 11 100950 48
2011-10-27 09:45 51°24.066 3°12.989 9 360 10.9 100940 47
2011-10-27 09:46 51°24.084 3°13.048 7.5 358 10.9 100940 47
2011-10-27 09:47 51°24.097 3°13.09 8.8 358 10.9 100930 47
2011-10-27 09:48 51°24.109 3°13.128 7.3 356 10.9 100940 46
2011-10-27 09:49 51°24.122 3°13.173 7.9 357 10.9 100940 47
2011-10-27 09:50 51°24.136 3°13.225 7.3 358 10.9 100940 48
2011-10-27 09:51 51°24.147 3°13.281 7 355 11 100930 49
2011-10-27 09:52 51°24.153 3°13.342 7.5 350 11 100930 48
2011-10-27 09:53 51°24.157 3°13.404 6.3 350 10.9 100930 48
2011-10-27 09:54 51°24.161 3°13.464 6.9 351 10.9 100930 46
2011-10-27 09:55 51°24.166 3°13.525 6.8 348 11 100930 47
2011-10-27 09:56 51°24.169 3°13.588 6.5 356 11 100930 47
2011-10-27 09:57 51°24.173 3°13.651 7.2 346 11.1 100930 47
2011-10-27 09:58 51°24.177 3°13.758 11 347 11.1 100930 47
2011-10-27 09:59 51°24.187 3°13.952 9.8 345 11.1 100910 46
2011-10-27 10:00 51°24.197 3°14.173 9.3 343 11.1 100910 46
2011-10-27 10:01 51°24.202 3°14.397 10.2 344 11.2 100910 46
2011-10-27 10:02 51°24.218 3°14.596 9.7 353 11.3 100910 47
2011-10-27 10:03 51°24.266 3°14.78 10.5 351 11.2 100920 46
2011-10-27 10:04 51°24.343 3°15.052 12.1 350 11.2 100910 47
2011-10-27 10:05 51°24.504 3°15.241 7.3 8 11.2 100940 47
2011-10-27 10:06 51°24.708 3°15.261 6 12 11.2 100940 47
2011-10-27 10:07 51°24.891 3°15.145 2.4 30 11.2 100940 47
2011-10-27 10:08 51°25.035 3°14.94 0.8 57 11.2 100940 47
2011-10-27 10:09 51°25.1 3°14.657 4.2 309 11.4 100940 48
2011-10-27 10:10 51°25.095 3°14.346 6.2 302 11.5 100930 47
2011-10-27 10:11 51°25.091 3°14.033 5.9 308 11.5 100930 47
2011-10-27 10:12 51°25.077 3°13.721 5.7 306 11.6 100930 46
2011-10-27 10:13 51°25.093 3°13.412 2.1 310 11.6 100930 46
2011-10-27 10:14 51°25.117 3°13.102 4.4 301 11.7 100930 47
2011-10-27 10:15 51°25.122 3°12.79 4.7 308 11.7 100920 46
2011-10-27 10:16 51°25.106 3°12.477 5.8 308 11.8 100920 47
2011-10-27 10:17 51°25.1 3°12.166 5.3 306 11.8 100920 47
2011-10-27 10:18 51°25.082 3°11.856 5.6 301 11.9 100920 47
2011-10-27 10:19 51°25.083 3°11.547 4.3 304 11.8 100920 46
2011-10-27 10:20 51°25.09 3°11.24 5.8 308 11.8 100920 45
2011-10-27 10:21 51°25.057 3°10.932 7 308 11.9 100910 46
2011-10-27 10:22 51°25.02 3°10.625 6.9 302 11.8 100910 45
2011-10-27 10:23 51°24.994 3°10.317 5.6 308 11.9 100920 46
2011-10-27 10:24 51°24.966 3°10.011 6.1 307 11.9 100920 46
2011-10-27 10:25 51°24.913 3°9.711 7.4 308 11.9 100920 46
2011-10-27 10:26 51°24.861 3°9.408 7.3 309 11.9 100920 46
2011-10-27 10:27 51°24.801 3°9.108 7.6 306 11.9 100910 45
2011-10-27 10:28 51°24.752 3°8.803 6.5 303 11.9 100920 46
2011-10-27 10:29 51°24.727 3°8.494 5.2 305 12 100920 46
2011-10-27 10:30 51°24.714 3°8.184 6.1 301 12 100920 46
2011-10-27 10:31 51°24.712 3°7.874 4.9 303 12 100920 45
2011-10-27 10:32 51°24.725 3°7.565 3.8 309 12 100920 45
2011-10-27 10:33 51°24.752 3°7.261 4.1 307 12 100910 45
2011-10-27 10:34 51°24.783 3°6.959 3.6 305 12 100900 45
2011-10-27 10:35 51°24.834 3°6.666 2.6 303 12 100900 46
2011-10-27 10:36 51°24.883 3°6.372 5 310 12 100900 44
2011-10-27 10:37 51°24.912 3°6.07 3.2 309 12 100900 45
2011-10-27 10:38 51°24.955 3°5.774 3 309 12 100900 46
2011-10-27 10:39 51°25.006 3°5.48 4.3 309 12 100900 46
2011-10-27 10:40 51°25.077 3°5.201 1.9 59 12.1 100900 46
2011-10-27 10:41 51°25.198 3°4.973 0.5 24 12 100900 45
2011-10-27 10:42 51°25.348 3°4.791 1.4 20 12.1 100900 45
2011-10-27 10:43 51°25.527 3°4.691 3.5 14 12.1 100900 45
2011-10-27 10:44 51°25.712 3°4.613 3.6 13 12.1 100900 46
2011-10-27 10:45 51°25.898 3°4.534 3.6 14 12.1 100900 47
2011-10-27 10:46 51°26.082 3°4.442 3.6 27 12 100890 45
2011-10-27 10:47 51°26.264 3°4.344 3.9 21 12 100890 45
2011-10-27 10:48 51°26.448 3°4.258 3.7 21 12 100890 47
2011-10-27 10:49 51°26.628 3°4.152 3.7 19 12 100890 46
2011-10-27 10:50 51°26.813 3°4.073 3.1 25 12 100880 46
2011-10-27 10:51 51°26.992 3°3.972 3.6 18 12.1 100880 45
2011-10-27 10:52 51°27.178 3°3.89 3.4 23 12.1 100880 47
2011-10-27 10:53 51°27.361 3°3.79 2.2 29 12.1 100890 45
2011-10-27 10:54 51°27.544 3°3.687 2.1 10 12.1 100890 47
2011-10-27 10:55 51°27.733 3°3.606 3.1 16 12.1 100890 45
2011-10-27 10:56 51°27.918 3°3.537 3.1 30 12.1 100890 46
2011-10-27 10:57 51°28.039 3°3.488 2.6 38 12.1 100900 46
2011-10-27 10:58 51°28.143 3°3.448 3.4 39 12.1 100900 47
2011-10-27 10:59 51°28.245 3°3.443 5.9 27 12.2 100900 47
2011-10-27 11:00 51°28.312 3°3.488 6.3 17 12.1 100900 46
2011-10-27 11:01 51°28.418 3°3.564 5.9 19 12.1 100900 47
2011-10-27 11:02 51°28.482 3°3.628 6.4 18 12.1 100900 47
2011-10-27 11:03 51°28.524 3°3.693 7.1 16 12.1 100890 47
2011-10-27 11:04 51°28.568 3°3.768 7.3 12 12.1 100890 47
2011-10-27 11:05 51°28.615 3°3.852 8 11 12.1 100890 47
2011-10-27 11:06 51°28.663 3°3.937 6.6 11 12.2 100880 47
2011-10-27 11:07 51°28.71 3°4.017 8 12 12.1 100890 47
2011-10-27 11:08 51°28.754 3°4.102 8.4 9 12.2 100890 47
2011-10-27 11:09 51°28.796 3°4.193 6.8 8 12.2 100880 47
2011-10-27 11:10 51°28.837 3°4.285 7.4 8 12.2 100890 47
2011-10-27 11:11 51°28.877 3°4.377 9 8 12.2 100880 48
2011-10-27 11:12 51°28.921 3°4.466 7.4 10 12.2 100880 47
2011-10-27 11:13 51°28.965 3°4.554 6.4 11 12.2 100880 47
2011-10-27 11:14 51°29.012 3°4.638 6.5 15 12.2 100890 47
2011-10-27 11:15 51°29.06 3°4.725 7.6 10 12.2 100880 46
2011-10-27 11:16 51°29.108 3°4.813 7.4 10 12.3 100880 47
2011-10-27 11:17 51°29.154 3°4.901 6.9 13 12.3 100880 47
2011-10-27 11:18 51°29.2 3°4.992 6.3 6 12.3 100880 47
2011-10-27 11:19 51°29.246 3°5.084 7.9 12 12.3 100890 47
2011-10-27 11:20 51°29.293 3°5.175 7.4 13 12.3 100880 48
2011-10-27 11:21 51°29.343 3°5.265 6.4 15 12.2 100880 47
2011-10-27 11:22 51°29.392 3°5.355 6.1 11 12.3 100880 47
2011-10-27 11:23 51°29.442 3°5.445 7.3 14 12.3 100890 46
2011-10-27 11:24 51°29.491 3°5.536 7.9 8 12.3 100890 47
2011-10-27 11:25 51°29.538 3°5.628 6.2 7 12.3 100880 46
2011-10-27 11:26 51°29.584 3°5.724 7.4 10 12.3 100880 47
2011-10-27 11:27 51°29.633 3°5.817 6.6 13 12.3 100890 48
2011-10-27 11:28 51°29.681 3°5.911 6.4 8 12.3 100890 48
2011-10-27 11:29 51°29.717 3°6.016 5.6 1 12.3 100890 48
2011-10-27 11:30 51°29.743 3°6.125 6.4 358 12.3 100890 49
2011-10-27 11:31 51°29.76 3°6.239 6.8 350 12.3 100890 49
2011-10-27 11:32 51°29.768 3°6.356 7.1 347 12.3 100880 48
2011-10-27 11:33 51°29.766 3°6.472 7 340 12.3 100880 48
2011-10-27 11:34 51°29.753 3°6.582 6.4 335 12.3 100880 48
2011-10-27 11:35 51°29.725 3°6.668 7.1 34 12.4 100880 49
2011-10-27 11:36 51°29.691 3°6.702 4.4 236 12.4 100870 48
2011-10-27 11:37 51°29.662 3°6.727 7 37 12.5 100880 48
2011-10-27 11:38 51°29.603 3°6.736 7.1 235 12.5 100880 48
2011-10-27 11:39 51°29.553 3°6.738 6.8 236 12.5 100880 48
2011-10-27 11:40 51°29.528 3°6.753 7.2 240 12.6 100880 48
2011-10-27 11:41 51°29.516 3°6.775 6.3 244 12.6 100870 48
2011-10-27 11:42 51°29.512 3°6.8 7.4 241 12.6 100880 48
2011-10-27 11:43 51°29.495 3°6.791 5.7 258 12.6 100870 47
2011-10-27 11:44 51°29.42 3°6.625 6.8 234 12.7 100860 47
2011-10-27 11:45 51°29.314 3°6.413 8.9 237 12.7 100860 48
2011-10-27 11:46 51°29.217 3°6.177 7.1 306 12.7 100860 47
2011-10-27 11:47 51°29.135 3°5.936 7.8 237 12.7 100870 48
2011-10-27 11:48 51°29.042 3°5.705 7.5 38 12.8 100860 47
2011-10-27 11:49 51°28.947 3°5.475 6.2 307 12.8 100850 48
2011-10-27 11:50 51°28.865 3°5.233 6.9 310 12.8 100850 48
2011-10-27 11:51 51°28.777 3°4.995 8.4 31 12.8 100850 47
2011-10-27 11:52 51°28.695 3°4.753 7.4 31 12.8 100860 47
2011-10-27 11:53 51°28.602 3°4.52 7 235 12.9 100850 47
2011-10-27 11:54 51°28.521 3°4.275 8.4 34 12.9 100850 46
2011-10-27 11:55 51°28.436 3°4.033 8.6 33 12.9 100850 47
2011-10-27 11:56 51°28.341 3°3.806 6.9 36 12.9 100850 47
2011-10-27 11:57 51°28.254 3°3.567 8.9 305 12.9 100860 47
2011-10-27 11:58 51°28.227 3°3.365 4.4 261 12.9 100870 47
2011-10-27 11:59 51°28.261 3°3.314 4 50 12.9 100880 46
2011-10-27 12:00 51°28.293 3°3.333 4 37 13.2 100870 48
2011-10-27 12:01 51°28.319 3°3.366 4.1 59 13.3 100880 45
2011-10-27 12:02 51°28.345 3°3.403 4.5 37 13.3 100870 46
2011-10-27 12:03 51°28.363 3°3.441 4.8 44 13.2 100880 46
2011-10-27 12:04 51°28.351 3°3.483 5.3 31 13.1 100870 46
2011-10-27 12:05 51°28.365 3°3.52 6 37 13.1 100880 47
2011-10-27 12:06 51°28.38 3°3.561 5 270 13 100880 45
2011-10-27 12:07 51°28.399 3°3.599 4.2 270 13.1 100880 46
2011-10-27 12:08 51°28.419 3°3.636 3.6 309 13.1 100870 47
2011-10-27 12:09 51°28.44 3°3.672 5.1 301 13.1 100880 47
2011-10-27 12:10 51°28.461 3°3.708 4.6 304 13.1 100870 46
2011-10-27 12:11 51°28.482 3°3.744 5.2 259 13.1 100870 46
2011-10-27 12:12 51°28.503 3°3.78 6.2 302 13.1 100880 46
2011-10-27 12:13 51°28.523 3°3.814 5.3 308 13.1 100870 46
2011-10-27 12:14 51°28.543 3°3.849 6.9 254 13.2 100860 47
2011-10-27 12:15 51°28.564 3°3.882 6.3 253 13.2 100860 47
2011-10-27 12:16 51°28.585 3°3.917 6 252 13.2 100860 46
2011-10-27 12:17 51°28.598 3°3.925 3.8 263 13.2 100860 46
2011-10-27 12:18 51°28.642 3°3.899 2.4 43 13.2 100870 46
2011-10-27 12:19 51°28.719 3°3.957 5.2 25 13.3 100860 45
2011-10-27 12:20 51°28.771 3°4.038 5.5 21 13.4 100860 46
2011-10-27 12:21 51°28.812 3°4.115 6.1 24 13.4 100860 44
2011-10-27 12:22 51°28.843 3°4.193 6.9 12 13.4 100870 44
2011-10-27 12:23 51°28.87 3°4.272 5.4 8 13.4 100870 44
2011-10-27 12:24 51°28.892 3°4.352 4.8 3 13.4 100870 44
2011-10-27 12:25 51°28.912 3°4.431 5.4 2 13.4 100870 44
2011-10-27 12:26 51°28.93 3°4.511 5.7 358 13.3 100870 45
2011-10-27 12:27 51°28.947 3°4.59 5.8 355 13.4 100860 44
2011-10-27 12:28 51°28.962 3°4.669 5.8 351 13.4 100860 45
2011-10-27 12:29 51°28.976 3°4.747 6.1 347 13.4 100870 46
2011-10-27 12:30 51°28.987 3°4.823 5 335 13.3 100860 46
2011-10-27 12:31 51°28.976 3°4.884 5.2 235 13.3 100860 46
2011-10-27 12:32 51°28.958 3°4.864 4.7 309 13.4 100860 47
2011-10-27 12:33 51°28.93 3°4.725 5.1 301 13.4 100860 48
2011-10-27 12:34 51°28.876 3°4.477 6.4 31 13.3 100860 47
2011-10-27 12:35 51°28.825 3°4.213 6.8 302 13.3 100850 48
2011-10-27 12:36 51°28.769 3°3.951 7.2 31 13.3 100840 47
2011-10-27 12:37 51°28.706 3°3.695 7.5 309 13.3 100840 46
2011-10-27 12:38 51°28.649 3°3.438 8.4 31 13.3 100840 47
2011-10-27 12:39 51°28.59 3°3.183 6.9 307 13.3 100840 46
2011-10-27 12:40 51°28.532 3°2.927 6.5 232 13.4 100840 45
2011-10-27 12:41 51°28.472 3°2.672 6.1 308 13.4 100830 45
2011-10-27 12:42 51°28.41 3°2.416 6.1 37 13.4 100830 46
2011-10-27 12:43 51°28.357 3°2.156 6.9 234 13.4 100830 46
2011-10-27 12:44 51°28.302 3°1.895 7.6 33 13.4 100820 46
2011-10-27 12:45 51°28.248 3°1.629 6.7 236 13.5 100820 45
2011-10-27 12:46 51°28.206 3°1.353 6.8 303 13.5 100820 46
2011-10-27 12:47 51°28.159 3°1.08 7.3 307 13.5 100830 46
2011-10-27 12:48 51°28.102 3°0.806 7.4 308 13.5 100820 46
2011-10-27 12:49 51°28.047 3°0.531 7.4 307 13.5 100820 46
2011-10-27 12:50 51°27.99 3°0.259 8.5 306 13.5 100810 44
2011-10-27 12:51 51°27.938 2°59.983 7.6 308 13.5 100820 46
2011-10-27 12:52 51°27.871 2°59.72 8.8 306 13.5 100810 47
2011-10-27 12:53 51°27.803 2°59.454 9.2 307 13.5 100810 46
2011-10-27 12:54 51°27.736 2°59.189 7.2 303 13.5 100810 46
2011-10-27 12:55 51°27.664 2°58.927 7.5 303 13.5 100810 46
2011-10-27 12:56 51°27.603 2°58.656 7.9 303 13.5 100820 46
2011-10-27 12:57 51°27.543 2°58.388 7.4 309 13.5 100810 47
2011-10-27 12:58 51°27.474 2°58.126 7.5 303 13.5 100810 46
2011-10-27 12:59 51°27.411 2°57.86 7.1 305 13.5 100820 47
2011-10-27 13:00 51°27.348 2°57.594 8.3 308 13.5 100810 47
2011-10-27 13:01 51°27.283 2°57.335 7.3 309 13.5 100820 46
2011-10-27 13:02 51°27.215 2°57.074 7.5 302 13.5 100820 46
2011-10-27 13:03 51°27.151 2°56.815 7.3 307 13.5 100820 46
2011-10-27 13:04 51°27.088 2°56.559 7.7 304 13.6 100820 47
2011-10-27 13:05 51°27.021 2°56.303 6.5 305 13.6 100820 47
2011-10-27 13:06 51°26.959 2°56.04 7 308 13.5 100820 45
2011-10-27 13:07 51°26.892 2°55.779 7 302 13.5 100820 47
2011-10-27 13:08 51°26.822 2°55.523 7.6 305 13.6 100830 47
2011-10-27 13:09 51°26.762 2°55.262 7.5 301 13.6 100830 47
2011-10-27 13:10 51°26.706 2°55.006 7.4 307 13.6 100840 48
2011-10-27 13:11 51°26.644 2°54.753 6.2 303 13.6 100840 47
2011-10-27 13:12 51°26.575 2°54.508 7.4 310 13.6 100840 48
2011-10-27 13:13 51°26.516 2°54.256 7.5 307 13.6 100850 48
2011-10-27 13:14 51°26.454 2°54.002 7 302 13.5 100840 46
2011-10-27 13:15 51°26.388 2°53.747 7.8 302 13.6 100840 48
2011-10-27 13:16 51°26.312 2°53.5 6.9 306 13.6 100840 48
2011-10-27 13:17 51°26.25 2°53.238 7.1 304 13.6 100830 48
2011-10-27 13:18 51°26.177 2°52.984 6.3 310 13.6 100830 47
2011-10-27 13:19 51°26.103 2°52.732 6.7 303 13.6 100840 47
2011-10-27 13:20 51°26.039 2°52.471 7.7 308 13.7 100840 48
2011-10-27 13:21 51°25.97 2°52.214 7.9 302 13.7 100840 48
2011-10-27 13:22 51°25.901 2°51.959 8.6 308 13.7 100850 46
2011-10-27 13:23 51°25.826 2°51.707 7.5 303 13.7 100840 47
2011-10-27 13:24 51°25.759 2°51.452 7.9 304 13.7 100840 46
2011-10-27 13:25 51°25.696 2°51.193 6.7 310 13.8 100840 47
2011-10-27 13:26 51°25.635 2°50.933 8.2 304 13.8 100840 46
2011-10-27 13:27 51°25.56 2°50.681 7.1 303 13.8 100840 47
2011-10-27 13:28 51°25.499 2°50.419 7.3 307 13.9 100840 46
2011-10-27 13:29 51°25.438 2°50.156 6.9 303 13.9 100840 47
2011-10-27 13:30 51°25.379 2°49.89 6.2 301 13.9 100840 44
2011-10-27 13:31 51°25.325 2°49.621 5.7 309 13.9 100840 47
2011-10-27 13:32 51°25.27 2°49.353 6.5 307 13.9 100840 46
2011-10-27 13:33 51°25.207 2°49.095 6.5 301 13.9 100830 46
2011-10-27 13:34 51°25.154 2°48.83 6.4 301 14 100830 46
2011-10-27 13:35 51°25.089 2°48.569 7.1 307 14 100840 47
2011-10-27 13:36 51°25.036 2°48.303 5.7 301 14 100830 47
2011-10-27 13:37 51°24.987 2°48.056 4.2 308 13.9 100830 47
2011-10-27 13:38 51°24.959 2°47.976 4.5 304 13.9 100840 46
2011-10-27 13:39 51°24.968 2°47.991 3.5 307 14 100840 47
2011-10-27 13:40 51°24.99 2°48.021 3 307 14 100850 47
2011-10-27 13:41 51°25.013 2°48.05 2.3 307 14 100850 47
2011-10-27 13:42 51°25.035 2°48.075 2.4 306 14 100850 47
2011-10-27 13:43 51°25.058 2°48.099 1.2 308 14 100850 48
2011-10-27 13:44 51°25.081 2°48.121 2.4 308 14 100850 47
2011-10-27 13:45 51°25.103 2°48.144 2.1 307 14 100850 47
2011-10-27 13:46 51°25.125 2°48.167 2.7 305 14 100850 46
2011-10-27 13:47 51°25.148 2°48.191 2.4 304 14 100860 47
2011-10-27 13:48 51°25.17 2°48.216 3.9 304 14 100860 48
2011-10-27 13:49 51°25.192 2°48.241 3.2 303 14 100860 48
2011-10-27 13:50 51°25.215 2°48.267 2.7 307 14 100860 47
2011-10-27 13:51 51°25.238 2°48.293 3.4 306 14.1 100860 49
2011-10-27 13:52 51°25.261 2°48.319 4.6 301 14.1 100850 47
2011-10-27 13:53 51°25.284 2°48.346 4.3 307 14.1 100850 49
2011-10-27 13:54 51°25.306 2°48.374 4.5 307 14.1 100850 46
2011-10-27 13:55 51°25.329 2°48.401 4.6 305 14.1 100860 47
2011-10-27 13:56 51°25.351 2°48.427 4.8 307 14.1 100850 48
2011-10-27 13:57 51°25.359 2°48.425 5.4 309 14.1 100850 48
2011-10-27 13:58 51°25.285 2°48.291 5.6 308 14.1 100840 48
2011-10-27 13:59 51°25.221 2°48.312 7.1 329 14.1 100850 48
2011-10-27 14:00 51°25.147 2°48.439 6.7 328 14.1 100840 48
2011-10-27 14:01 51°25.082 2°48.516 6.5 302 14.2 100860 47
2011-10-27 14:02 51°25.041 2°48.513 5.9 308 14.2 100850 46
2011-10-27 14:03 51°25.004 2°48.455 5.7 303 14.2 100860 48
2011-10-27 14:04 51°24.974 2°48.378 5.4 303 14.2 100860 48
2011-10-27 14:05 51°24.945 2°48.31 5 300 14.2 100860 47
2011-10-27 14:06 51°24.918 2°48.245 5.4 303 14.2 100860 47
2011-10-27 14:07 51°24.903 2°48.174 5.8 302 14.2 100870 48
2011-10-27 14:08 51°24.895 2°48.101 5.1 310 14.3 100860 47
2011-10-27 14:09 51°24.885 2°48.029 5.4 310 14.3 100870 47
2011-10-27 14:10 51°24.87 2°47.944 5.4 307 14.3 100870 47
2011-10-27 14:11 51°24.849 2°47.854 5.5 305 14.3 100870 48
2011-10-27 14:12 51°24.83 2°47.77 5.3 301 14.3 100870 47
2011-10-27 14:13 51°24.812 2°47.69 4.9 304 14.3 100870 47
2011-10-27 14:14 51°24.795 2°47.61 5.8 307 14.3 100870 47
2011-10-27 14:15 51°24.779 2°47.527 7 305 14.3 100870 47
2011-10-27 14:16 51°24.763 2°47.444 5.7 304 14.3 100870 47
2011-10-27 14:17 51°24.771 2°47.35 4.3 303 14.3 100870 48
2011-10-27 14:18 51°24.815 2°47.26 3 56 14.3 100870 47
2011-10-27 14:19 51°24.875 2°47.194 3.4 53 14.3 100870 47
2011-10-27 14:20 51°24.94 2°47.149 1.4 56 14.3 100880 47
2011-10-27 14:21 51°25.012 2°47.136 3.3 44 14.5 100880 47
2011-10-27 14:22 51°25.088 2°47.156 3.5 33 14.5 100880 47
2011-10-27 14:23 51°25.16 2°47.207 4.5 26 14.5 100870 46
2011-10-27 14:24 51°25.224 2°47.282 4.7 18 14.4 100870 46
2011-10-27 14:25 51°25.277 2°47.374 5.9 10 14.4 100870 46
2011-10-27 14:26 51°25.316 2°47.479 6.1 3 14.4 100880 44
2011-10-27 14:27 51°25.341 2°47.587 5.7 353 14.4 100870 45
2011-10-27 14:28 51°25.354 2°47.696 6.6 347 14.4 100870 46
2011-10-27 14:29 51°25.353 2°47.802 5.5 343 14.4 100870 46
2011-10-27 14:30 51°25.352 2°47.887 5.7 342 14.4 100860 45
2011-10-27 14:31 51°25.355 2°47.949 5.2 341 14.4 100870 46
2011-10-27 14:32 51°25.331 2°48.04 8 329 14.5 100870 45
2011-10-27 14:33 51°25.26 2°48.09 7.8 302 14.5 100880 46
2011-10-27 14:34 51°25.231 2°48.101 5.8 302 14.5 100880 44
2011-10-27 14:35 51°25.219 2°48.109 5.8 308 14.5 100880 45
2011-10-27 14:36 51°25.21 2°48.138 5.3 332 14.5 100890 46
2011-10-27 14:37 51°25.208 2°48.192 5.5 337 14.5 100880 45
2011-10-27 14:38 51°25.199 2°48.248 5.2 331 14.5 100880 45
2011-10-27 14:39 51°25.182 2°48.292 5.7 326 14.5 100890 44
2011-10-27 14:40 51°25.16 2°48.337 6 330 14.5 100890 45
2011-10-27 14:41 51°25.142 2°48.393 5.3 336 14.5 100890 45
2011-10-27 14:42 51°25.129 2°48.447 5.7 332 14.5 100900 44
2011-10-27 14:43 51°25.115 2°48.488 4.9 301 14.5 100900 45
2011-10-27 14:44 51°25.101 2°48.523 5.1 330 14.5 100900 46
2011-10-27 14:45 51°25.089 2°48.564 4.8 333 14.5 100900 45
2011-10-27 14:46 51°25.075 2°48.604 4.6 329 14.5 100900 45
2011-10-27 14:47 51°25.059 2°48.635 4.8 323 14.5 100900 45
2011-10-27 14:48 51°24.963 2°48.681 8.8 331 14.5 100900 45
2011-10-27 14:49 51°24.79 2°48.771 9.7 329 14.5 100890 46
2011-10-27 14:50 51°24.606 2°48.859 9 330 14.5 100890 45
2011-10-27 14:51 51°24.421 2°48.929 9.6 329 14.5 100900 47
2011-10-27 14:52 51°24.236 2°49.006 11.9 331 14.5 100900 46
2011-10-27 14:53 51°24.054 2°49.096 10.5 330 14.5 100900 46
2011-10-27 14:54 51°23.872 2°49.183 9.5 330 14.5 100900 46
2011-10-27 14:55 51°23.687 2°49.246 10.3 329 14.4 100900 47
2011-10-27 14:56 51°23.502 2°49.319 8.8 330 14.5 100900 47
2011-10-27 14:57 51°23.373 2°49.514 9 342 14.5 100900 47
2011-10-27 14:58 51°23.31 2°49.824 8.7 342 14.5 100900 45
2011-10-27 14:59 51°23.253 2°50.147 9.6 340 14.5 100900 47
2011-10-27 15:00 51°23.202 2°50.458 8 341 14.4 100910 47
2011-10-27 15:01 51°23.144 2°50.769 8 337 14.4 100900 47
2011-10-27 15:02 51°23.021 2°51.018 7.4 332 14.3 100910 48
2011-10-27 15:03 51°22.844 2°51.105 9.7 329 14.3 100910 48
2011-10-27 15:04 51°22.656 2°51.17 9 329 14.2 100920 47
2011-10-27 15:05 51°22.468 2°51.255 8.8 332 14.3 100910 48
2011-10-27 15:06 51°22.279 2°51.319 6.9 330 14.2 100920 47
2011-10-27 15:07 51°22.089 2°51.372 7.5 330 14.2 100920 49
2011-10-27 15:08 51°21.904 2°51.462 8.3 331 14.2 100920 48
2011-10-27 15:09 51°21.717 2°51.539 7.7 330 14.2 100920 50
2011-10-27 15:10 51°21.527 2°51.574 10.8 330 14.1 100930 49
2011-10-27 15:11 51°21.337 2°51.618 8.2 331 14.1 100920 49
2011-10-27 15:12 51°21.149 2°51.673 10.2 332 14.2 100920 49
2011-10-27 15:13 51°20.962 2°51.728 8.6 332 14.2 100930 48
2011-10-27 15:14 51°20.77 2°51.755 8.5 335 14.2 100930 47
2011-10-27 15:15 51°20.581 2°51.807 10.8 334 14.2 100920 49
2011-10-27 15:16 51°20.391 2°51.842 9.1 335 14.3 100920 49
2011-10-27 15:17 51°20.202 2°51.883 8.3 335 14.3 100920 49
2011-10-27 15:18 51°20.011 2°51.906 9.2 335 14.3 100930 49
2011-10-27 15:19 51°19.82 2°51.936 9.2 335 14.3 100920 49
2011-10-27 15:20 51°19.628 2°51.983 8.8 333 14.3 100930 49
2011-10-27 15:21 51°19.442 2°52.013 9.4 332 14.4 100920 48
2011-10-27 15:22 51°19.253 2°52.052 9.5 335 14.4 100920 47
2011-10-27 15:23 51°19.064 2°52.098 9.4 333 14.4 100920 48
2011-10-27 15:24 51°18.874 2°52.12 9.6 334 14.4 100930 48
2011-10-27 15:25 51°18.685 2°52.165 11.6 335 14.4 100920 48
2011-10-27 15:26 51°18.497 2°52.205 12 332 14.4 100920 47
2011-10-27 15:27 51°18.306 2°52.203 11.4 330 14.4 100920 47
2011-10-27 15:28 51°18.111 2°52.19 11.7 332 14.5 100930 46
2011-10-27 15:29 51°17.924 2°52.207 10.3 333 14.5 100930 46
2011-10-27 15:30 51°17.734 2°52.204 10.6 331 14.5 100940 44
2011-10-27 15:31 51°17.543 2°52.216 11.4 331 14.6 100930 44
2011-10-27 15:32 51°17.354 2°52.263 8.6 332 14.7 100930 44
2011-10-27 15:33 51°17.166 2°52.312 9 333 14.7 100940 45
2011-10-27 15:34 51°16.982 2°52.395 9.8 335 14.7 100950 45
2011-10-27 15:35 51°16.807 2°52.522 9.3 337 14.7 100940 45
2011-10-27 15:36 51°16.639 2°52.674 10.1 335 14.7 100950 44
2011-10-27 15:37 51°16.467 2°52.833 9.4 336 14.7 100950 44
2011-10-27 15:38 51°16.295 2°52.976 10.9 338 14.7 100950 43
2011-10-27 15:39 51°16.13 2°53.149 9.2 339 14.8 100950 44
2011-10-27 15:40 51°15.972 2°53.339 10.5 340 14.7 100950 44
2011-10-27 15:41 51°15.812 2°53.525 9.1 336 14.7 100950 44
2011-10-27 15:42 51°15.652 2°53.711 9.9 337 14.7 100960 44
2011-10-27 15:43 51°15.489 2°53.89 8.2 338 14.7 100960 43
2011-10-27 15:44 51°15.326 2°54.071 8.3 337 14.7 100960 44
2011-10-27 15:45 51°15.162 2°54.251 9.8 337 14.7 100950 44
2011-10-27 15:46 51°15.004 2°54.439 12.2 336 14.6 100940 43
2011-10-27 15:47 51°14.844 2°54.63 10.6 337 14.7 100930 43
2011-10-27 15:48 51°14.688 2°54.807 9 339 14.7 100940 42
2011-10-27 15:49 51°14.53 2°54.991 9.3 337 14.8 100940 42
2011-10-27 15:50 51°14.373 2°55.175 9.5 336 14.8 100940 42
2011-10-27 15:51 51°14.229 2°55.336 10 331 14.8 100930 43
2011-10-27 15:52 51°14.101 2°55.438 8.6 333 14.7 100950 43
2011-10-27 15:53 51°13.989 2°55.516 7.2 332 14.7 100960 43
2011-10-27 15:54 51°13.889 2°55.586 8.6 332 14.7 100960 41
2011-10-27 15:55 51°13.791 2°55.678 7.6 338 14.7 100960 44
2011-10-27 15:56 51°13.751 2°55.735 6.2 345 14.7 100960 42
2011-10-27 15:57 51°13.685 2°55.868 5.1 336 14.7 100970 43
2011-10-27 15:58 51°13.65 2°55.95 4.3 338 14.7 100970 43
2011-10-27 15:59 51°13.636 2°56.012 3.5 350 14.7 100980 44
2011-10-27 16:00 51°13.635 2°56.018 2.4 352 14.6 100980 44